Zurück zum Katalog

USA 58

AktivMilitärPO
NORAD 20562·PAYLOAD·🇺🇸 United States

Gestartet Apr 11, 1990 von Vandenberg Space Force Base

Loading…

Nächste Überflüge (nächste 24 Stunden)

TLE

AktuellSource: Space-Track

Epoche: Sep 14, 2026, 08:24 UTC

1 20562U 90031C   26257.35004130  .00000647  00000-0  87606-4 0  9994
2 20562  89.8532 261.7106 0061960 349.0088  10.9775 14.76541429126808

Verfolge USA 58 in Echtzeit mit AllMySat

Download on the App Store